Location: Stara Lesna
(49.1528°N, 20.2911°E)
Time: 10:08:01
(UTC+02:00)

Cosmos 1733 Rocket - Pass Details

Date: 13 July 2020
Orbit: 604 x 628 km, 82.5° (Epoch: 05 August)

Event Time Altitude Azimuth Distance (km) Brightness Sun altitude
Exits shadow 03:13:03 13° 183° (S) 1,777 4.9 -11.8°
Maximum altitude 03:16:56 79° 98° (E) 623 3.1 -11.4°
Drops below altitude 10° 03:21:16 10° 12° (NNE) 1,964 6.8 -11.0°
Sets 03:23:30 0° 11° (NNE) 2,873 7.8 -10.8°
